STARLINK-33992 (64026 NORAD) Tracking and Keplerian Element Data

This shows tracking and keplerian element data for the satellite.

Feedback or suggestion? Click here.




ElementValue
Catalog64026
NameSTARLINK-33992
Epoch Orbit3413
Epoch Day354.22162518
Epoch Year2025
RAAN315.0263
Inclination70.0019
Eccentricity0.0002792
Argument of Perigee270.3812
Mean Anonmoly89.7027
Mean Motion14.98334617
Decay Rate1.72E-05
L11 64026U 25102E 25354.22162518 .00001720 00000+0 15189-3 0 9990
L22 64026 70.0019 315.0263 0002792 270.3812 89.7027 14.98334617 34130



Live tracking and technical data element details for STARLINK-33992 (NORAD 64026). STARLINK-33992 can be tracked NOW for your location showing map with azimuth and elevation plus other details from your city location.







IsCatalogInMostPopularTable: catalog: 64026, numindb: 2
Update: records affected: 1



GetName: 64026 STARLINK-33992

Hit Count: updated at: Sun, 08 Feb 2026 07:47:04 GMT